Location: Sternwarte-Kraichtal
(49.1689°N, 8.6996°E)
Time: 05:56:07
(UTC+02:00)

ISS - Visible Passes

Search period start: 29 March 2020 00:00
Search period end: 08 April 2020 01:00
Orbit: 417 x 423 km, 51.6° (Epoch: 29 March)

Date Brightness Start Highest point End Pass type
(mag) Time Alt. Az. Time Alt. Az. Time Alt. Az.
29 Mar -3.9 21:44:27 10° WNW 21:47:49 83° NNE 21:48:12 68° E visible
30 Mar -3.6 20:57:05 10° WNW 21:00:26 67° NNE 21:02:43 19° E visible
30 Mar -1.7 22:34:01 10° W 22:35:41 24° W 22:35:41 24° W visible
31 Mar -3.5 21:46:33 10° WNW 21:49:51 54° SSW 21:50:14 50° S visible
01 Apr -3.7 20:59:09 10° WNW 21:02:31 75° SSW 21:04:47 19° ESE visible
01 Apr -1.2 22:36:36 10° W 22:37:46 15° WSW 22:37:46 15° WSW visible
02 Apr -2.2 21:48:51 10° W 21:51:41 25° SW 21:52:21 23° SSW visible
03 Apr -2.7 21:01:16 10° W 21:04:24 37° SSW 21:06:59 14° SSE visible
04 Apr -1.0 21:52:10 10° WSW 21:53:16 11° SW 21:54:22 10° SSW visible
05 Apr -1.3 21:03:47 10° W 21:06:03 17° SW 21:08:20 10° S visible
